Location: France
(46.2276°N, 2.2137°E)
Time: 20:39:29
(UTC+02:00)

ISS - Pass Details

Date: 19 April 2026
Orbit: 414 x 424 km, 51.6° (Epoch: 12 May)

Event Time Altitude Azimuth Distance (km) Brightness Sun altitude
Exits shadow 06:13:23 - 212° (SSW) 1,706 -1.2 -8.0°
Reaches altitude 10° 06:13:57 10° 209° (SSW) 1,491 -1.4 -7.9°
Maximum altitude 06:17:01 34° 142° (SE) 709 -2.5 -7.4°
Drops below altitude 10° 06:20:07 10° 76° (ENE) 1,506 0.7 -6.9°
Sets 06:22:20 0° 67° (ENE) 2,376 2.9 -6.6°
